Date,Time,Wetness (Wet Dry or Ice),Wind Speed (m/s),Temperature (C),Humidity (%),Pressure (mb),Radiation (W/m^2)
2021-12-10,02:45:00,WET,11.20,2.35,98.5,775.00,2.9
2021-12-10,02:50:00,WET,12.13,2.03,96.0,775.00,1.6
2021-12-10,02:55:00,WET,9.05,1.80,100.0,775.00,2.1
2021-12-10,03:00:00,WET,12.23,1.93,97.7,775.00,1.6
2021-12-10,03:05:00,DRY,10.35,2.05,87.0,775.00,1.4
2021-12-10,03:10:00,WET,12.03,2.03,89.3,775.00,1.9
2021-12-10,03:15:00,WET,10.85,1.85,98.5,775.00,1.9
2021-12-10,03:20:00,WET,11.50,1.83,91.0,775.00,1.0
2021-12-10,03:25:00,WET,11.35,2.00,80.5,775.00,1.0
2021-12-10,03:30:00,WET,10.17,1.80,91.3,775.00,1.8
2021-12-10,03:35:00,WET,12.55,1.45,100.0,775.00,3.0
2021-12-10,03:40:00,WET,12.80,1.77,91.7,775.00,1.1
2021-12-10,03:45:00,WET,8.95,1.70,93.0,775.00,1.4
2021-12-10,03:50:00,WET,10.73,1.30,99.7,775.00,2.1
2021-12-10,03:55:00,WET,14.80,1.80,99.0,774.00,1.6
2021-12-10,04:00:00,WET,11.93,1.73,95.0,775.00,1.2
2021-12-10,04:05:00,WET,14.90,1.95,93.5,775.00,1.4
2021-12-10,04:10:00,WET,11.83,1.67,95.7,774.33,0.9
2021-12-10,04:15:00,WET,12.40,1.70,96.0,775.00,1.4
2021-12-10,04:20:00,WET,12.83,1.70,95.7,775.00,1.3
2021-12-10,04:25:00,WET,13.25,1.65,95.5,774.50,1.2
2021-12-10,04:30:00,WET,12.33,1.87,87.0,774.67,1.2
2021-12-10,04:35:00,WET,12.05,2.00,89.0,774.50,2.1
2021-12-10,04:40:00,WET,12.77,1.67,91.0,774.67,2.7
2021-12-10,04:45:00,WET,13.70,1.20,100.0,774.50,5.2
2021-12-10,04:50:00,WET,11.50,1.60,100.0,775.00,5.5
2021-12-10,04:55:00,WET,14.30,2.10,100.0,775.00,5.2
2021-12-10,05:00:00,WET,14.07,1.87,100.0,775.00,5.6
2021-12-10,05:05:00,WET,8.85,1.65,100.0,775.00,4.5
2021-12-10,05:10:00,WET,13.77,1.50,100.0,774.33,3.8
2021-12-10,05:15:00,WET,12.45,1.65,100.0,774.50,4.4
2021-12-10,05:20:00,WET,9.63,1.97,88.0,774.67,1.5
2021-12-10,05:25:00,WET,12.90,1.80,90.5,775.00,0.8
2021-12-10,05:30:00,WET,12.60,1.67,99.0,775.00,1.9
2021-12-10,05:35:00,WET,9.90,1.75,100.0,775.00,5.3
2021-12-10,05:40:00,WET,11.73,1.60,100.0,775.00,4.7
2021-12-10,05:45:00,WET,12.70,1.95,99.0,774.50,2.8
2021-12-10,05:50:00,WET,12.07,1.63,100.0,774.33,3.7
2021-12-10,05:55:00,WET,8.65,1.70,99.0,775.00,3.9
2021-12-10,06:00:00,WET,14.00,1.63,100.0,774.67,5.7
2021-12-10,06:05:00,WET,12.25,1.70,100.0,775.00,4.9
2021-12-10,06:10:00,WET,11.33,1.53,100.0,774.33,5.5
2021-12-10,06:15:00,WET,15.45,1.45,100.0,775.00,7.8
2021-12-10,06:20:00,WET,14.00,1.93,100.0,775.00,4.4
2021-12-10,06:25:00,WET,12.15,2.05,100.0,775.00,4.5
2021-12-10,06:30:00,WET,14.17,2.23,100.0,774.67,5.0
2021-12-10,06:35:00,WET,11.60,2.25,100.0,775.00,5.7
2021-12-10,06:40:00,WET,12.37,2.20,100.0,774.67,4.5
2021-12-10,06:45:00,WET,9.30,2.10,100.0,775.00,4.7
2021-12-10,06:50:00,WET,10.90,2.03,100.0,775.00,5.1
2021-12-10,06:55:00,WET,12.85,1.80,100.0,775.00,3.5
2021-12-10,07:00:00,WET,13.20,1.73,100.0,775.00,4.5
2021-12-10,07:05:00,WET,11.60,2.15,92.0,775.00,2.7
2021-12-10,07:10:00,WET,11.73,1.70,98.3,775.00,2.4
2021-12-10,07:15:00,WET,13.95,1.95,99.5,775.00,4.5
2021-12-10,07:20:00,WET,13.27,2.13,100.0,775.00,5.1
2021-12-10,07:25:00,WET,11.80,2.40,100.0,775.00,5.5
2021-12-10,07:30:00,WET,13.60,2.27,100.0,775.00,4.1
2021-12-10,07:35:00,WET,14.05,2.55,100.0,775.00,3.1
2021-12-10,07:40:00,WET,12.27,2.40,100.0,775.00,4.1
2021-12-10,07:45:00,WET,11.95,2.35,96.5,775.00,5.0
2021-12-10,07:50:00,WET,9.93,2.47,91.3,775.00,5.4
2021-12-10,07:55:00,WET,8.05,2.55,89.5,775.00,7.5
2021-12-10,08:00:00,WET,10.27,3.13,63.7,775.00,10.0
2021-12-10,08:05:00,DRY,9.65,3.50,56.5,775.00,11.6
2021-12-10,08:10:00,DRY,11.43,3.77,51.3,775.00,13.9
2021-12-10,08:15:00,DRY,12.10,3.50,55.0,775.00,16.4
2021-12-10,08:20:00,WET,10.17,3.33,64.3,775.00,28.5
2021-12-10,08:25:00,WET,13.05,2.15,99.0,775.00,44.5
2021-12-10,08:30:00,WET,12.13,2.50,100.0,775.00,43.3
2021-12-10,08:35:00,WET,11.30,3.15,100.0,775.00,97.0
2021-12-10,08:40:00,WET,13.93,2.50,100.0,775.67,80.7
2021-12-10,08:45:00,WET,11.70,2.35,100.0,775.50,162.1
2021-12-10,08:50:00,WET,12.87,2.97,78.7,775.67,197.7
2021-12-10,08:55:00,DRY,11.55,3.65,55.0,775.50,220.8
2021-12-10,09:00:00,DRY,9.60,4.10,47.3,775.67,249.8
2021-12-10,09:05:00,DRY,11.60,4.20,44.5,776.00,270.6
2021-12-10,09:10:00,DRY,9.30,4.13,47.3,776.00,290.9
2021-12-10,09:15:00,DRY,6.90,4.55,39.5,776.00,309.9
2021-12-10,09:20:00,DRY,7.80,5.20,34.3,775.67,330.2
2021-12-10,09:25:00,DRY,8.75,5.30,35.5,776.00,348.0
2021-12-10,09:30:00,DRY,7.77,5.63,30.7,776.00,366.7
2021-12-10,09:35:00,DRY,9.15,6.00,25.5,776.00,385.3
2021-12-10,09:40:00,DRY,8.40,6.50,23.7,776.00,404.6
2021-12-10,09:45:00,DRY,12.40,6.30,24.0,776.00,422.3
2021-12-10,09:50:00,DRY,9.40,6.60,20.7,776.00,439.9
2021-12-10,09:55:00,DRY,7.10,6.60,20.0,776.00,457.0
2021-12-10,10:00:00,DRY,9.33,6.80,18.7,776.00,475.0
2021-12-10,10:05:00,DRY,9.15,7.05,18.0,776.00,492.1
2021-12-10,10:10:00,DRY,8.20,7.00,19.0,776.00,506.5
2021-12-10,10:15:00,DRY,7.60,7.80,15.5,776.00,522.6
2021-12-10,10:20:00,DRY,7.30,8.13,18.7,776.00,538.6
2021-12-10,10:25:00,DRY,6.05,7.85,17.5,776.00,553.0
2021-12-10,10:30:00,DRY,7.27,7.80,20.3,776.00,567.3
2021-12-10,10:35:00,DRY,6.75,8.10,16.5,776.00,581.2
2021-12-10,10:40:00,DRY,7.63,8.17,15.0,776.00,595.3
2021-12-10,10:45:00,DRY,6.80,7.90,16.0,776.00,608.0
2021-12-10,10:50:00,DRY,8.30,7.67,17.3,776.00,621.3
2021-12-10,10:55:00,DRY,4.65,8.20,14.5,776.00,633.7
2021-12-10,11:00:00,DRY,6.07,8.00,15.3,776.00,645.7
2021-12-10,11:05:00,DRY,8.40,7.95,15.0,776.00,656.2
2021-12-10,11:10:00,DRY,8.20,8.07,16.0,776.00,668.0
2021-12-10,11:15:00,DRY,8.65,8.10,16.0,776.00,678.8
2021-12-10,11:20:00,DRY,7.57,8.13,16.0,776.00,688.6
2021-12-10,11:25:00,DRY,4.65,8.15,16.5,776.00,697.0
2021-12-10,11:30:00,DRY,7.50,7.77,17.0,776.00,705.6
2021-12-10,11:35:00,DRY,4.90,8.10,15.0,776.00,715.0
2021-12-10,11:40:00,DRY,4.97,8.17,16.7,776.00,724.3
2021-12-10,11:45:00,DRY,4.45,8.05,19.0,776.00,731.6
2021-12-10,11:50:00,DRY,4.20,7.93,18.7,776.00,740.4
2021-12-10,11:55:00,DRY,2.85,8.25,17.0,776.00,744.7
2021-12-10,12:00:00,DRY,3.73,8.03,20.7,776.00,752.0
2021-12-10,12:05:00,DRY,4.65,8.20,24.5,776.00,757.0
2021-12-10,12:10:00,DRY,5.60,7.70,24.3,776.00,762.8
2021-12-10,12:15:00,DRY,5.45,7.60,22.5,775.50,769.6
2021-12-10,12:20:00,DRY,6.57,7.67,22.7,776.00,773.3
2021-12-10,12:25:00,DRY,6.05,7.40,22.0,776.00,778.0
2021-12-10,12:30:00,DRY,5.60,7.40,20.0,775.67,781.4
2021-12-10,12:35:00,DRY,6.10,7.55,21.5,775.00,784.4
2021-12-10,12:40:00,DRY,6.27,7.53,22.0,775.33,786.8
2021-12-10,12:45:00,DRY,5.85,7.90,18.0,775.00,788.9
2021-12-10,12:50:00,DRY,5.73,7.30,23.7,775.00,789.9
2021-12-10,12:55:00,DRY,4.95,7.60,22.0,775.00,790.5
2021-12-10,13:00:00,DRY,3.87,7.57,25.7,775.00,791.2
2021-12-10,13:05:00,WET,3.65,7.25,25.5,775.00,790.1
2021-12-10,13:10:00,DRY,6.17,7.43,22.0,775.00,790.7
2021-12-10,13:15:00,DRY,5.85,7.45,28.5,775.00,788.7
2021-12-10,13:20:00,DRY,5.77,7.53,30.0,775.00,786.8
2021-12-10,13:25:00,DRY,3.70,7.55,29.5,775.00,785.5
2021-12-10,13:30:00,DRY,2.40,7.40,36.5,775.00,780.5
2021-12-10,13:35:00,DRY,4.90,7.30,43.0,775.00,775.9
2021-12-10,13:40:00,DRY,2.23,7.03,47.0,775.00,774.3
2021-12-10,13:45:00,DRY,3.00,7.40,42.0,775.00,768.3
2021-12-10,13:50:00,DRY,2.33,8.13,30.7,775.00,767.7
2021-12-10,13:55:00,DRY,2.50,7.85,27.0,775.00,763.3
2021-12-10,14:00:00,DRY,2.83,8.10,29.7,775.00,758.5
2021-12-10,14:05:00,DRY,2.35,7.80,35.5,775.00,752.9
2021-12-10,14:10:00,DRY,1.90,7.70,32.3,775.00,745.7
2021-12-10,14:15:00,DRY,5.25,7.55,34.0,775.00,737.0
2021-12-10,14:20:00,DRY,2.13,7.60,34.0,775.00,727.3
2021-12-10,14:25:00,DRY,5.30,7.30,31.0,775.00,723.1
2021-12-10,14:30:00,DRY,3.57,7.47,27.0,775.00,713.8
2021-12-10,14:35:00,DRY,5.35,7.60,25.5,775.00,705.6
2021-12-10,14:40:00,DRY,3.23,7.40,27.0,775.00,695.1
2021-12-10,14:45:00,DRY,4.00,7.50,25.5,775.00,684.0
2021-12-10,14:50:00,DRY,3.47,7.40,27.0,775.00,674.6
2021-12-10,14:55:00,DRY,5.00,7.50,27.5,775.00,665.1
2021-12-10,15:00:00,DRY,2.53,7.63,23.7,775.00,652.9
2021-12-10,15:05:00,DRY,2.55,7.75,21.5,775.00,642.5
2021-12-10,15:10:00,DRY,4.80,7.67,24.0,775.00,628.8
2021-12-10,15:15:00,DRY,4.80,7.55,25.5,775.00,618.1
2021-12-10,15:20:00,DRY,7.20,7.57,20.3,775.00,604.5
2021-12-10,15:25:00,DRY,5.80,7.55,22.0,775.00,591.3
2021-12-10,15:30:00,DRY,6.37,7.43,26.7,775.00,576.4
2021-12-10,15:35:00,DRY,6.15,7.30,25.0,775.00,562.1
2021-12-10,15:40:00,DRY,6.50,7.40,22.7,775.00,547.7
2021-12-10,15:45:00,DRY,5.50,7.55,21.0,775.00,531.6
2021-12-10,15:50:00,DRY,6.87,7.53,18.3,775.00,517.2
2021-12-10,15:55:00,DRY,7.00,7.55,23.0,775.00,500.4
2021-12-10,16:00:00,DRY,6.83,7.50,22.7,775.00,484.3
2021-12-10,16:05:00,DRY,5.25,7.50,17.0,775.00,467.6
2021-12-10,16:10:00,DRY,5.43,7.53,19.7,775.00,450.1
2021-12-10,16:15:00,DRY,4.35,7.50,22.0,775.00,432.6
2021-12-10,16:20:00,DRY,4.77,7.50,21.0,775.00,415.5
2021-12-10,16:25:00,DRY,3.90,7.60,21.0,775.00,398.0
2021-12-10,16:30:00,DRY,5.50,7.60,19.7,775.00,379.3
2021-12-10,16:35:00,DRY,4.00,7.45,22.0,775.00,360.5
2021-12-10,16:40:00,DRY,6.40,7.57,18.3,775.00,342.1
2021-12-10,16:45:00,DRY,4.60,7.75,19.0,775.00,323.4
2021-12-10,16:50:00,DRY,5.07,7.53,18.3,775.00,303.9
2021-12-10,16:55:00,DRY,3.00,7.60,19.0,775.00,284.1
2021-12-10,17:00:00,DRY,3.23,7.53,20.7,775.00,265.4
2021-12-10,17:05:00,DRY,3.00,7.60,20.0,775.00,246.1
2021-12-10,17:10:00,DRY,5.80,7.17,22.7,775.00,226.9
2021-12-10,17:15:00,DRY,2.75,7.15,22.0,775.00,207.5
2021-12-10,17:20:00,DRY,2.67,7.17,23.7,775.00,188.8
2021-12-10,17:25:00,DRY,5.20,7.15,19.0,775.00,171.7
2021-12-10,17:30:00,DRY,4.00,7.37,19.0,775.00,152.5
2021-12-10,17:35:00,DRY,4.90,7.20,20.0,775.00,128.6
2021-12-10,17:40:00,DRY,6.33,7.13,20.3,775.00,102.7
2021-12-10,17:45:00,DRY,5.35,7.10,19.5,775.00,79.9
2021-12-10,17:50:00,DRY,4.87,7.13,18.0,775.00,59.4
2021-12-10,17:55:00,DRY,4.65,7.05,18.5,775.00,42.3
2021-12-10,18:00:00,DRY,5.30,7.00,18.0,775.00,28.3
2021-12-10,18:05:00,DRY,3.35,7.10,17.0,775.00,18.2
2021-12-10,18:10:00,DRY,4.20,7.17,16.7,775.00,13.7
2021-12-10,18:15:00,DRY,5.30,7.00,17.5,775.00,9.7
2021-12-10,18:20:00,DRY,5.43,6.87,18.0,775.00,5.8
2021-12-10,18:25:00,DRY,5.50,7.00,18.0,775.00,3.5
2021-12-10,18:30:00,DRY,2.80,6.87,20.0,775.00,2.8
2021-12-10,18:35:00,DRY,2.50,6.75,23.5,775.00,1.9
2021-12-10,18:40:00,DRY,2.60,6.83,22.3,775.67,0.6
2021-12-10,18:45:00,DRY,3.65,6.90,22.5,775.00,1.2
2021-12-10,18:50:00,DRY,3.57,6.83,20.3,775.33,0.4
2021-12-10,18:55:00,DRY,5.10,7.00,20.5,775.00,1.4
2021-12-10,19:00:00,DRY,4.33,7.17,19.0,775.67,2.0
2021-12-10,19:05:00,DRY,3.65,7.15,20.0,775.50,1.5
2021-12-10,19:10:00,DRY,3.90,7.00,20.3,776.00,1.2
2021-12-10,19:15:00,DRY,5.15,7.00,20.0,776.00,1.1
2021-12-10,19:20:00,DRY,5.03,7.03,19.7,775.67,1.3
2021-12-10,19:25:00,DRY,4.20,6.85,20.0,776.00,1.1
2021-12-10,19:30:00,DRY,4.40,7.00,20.0,776.00,0.9
2021-12-10,19:35:00,DRY,3.20,6.95,19.0,776.00,0.7
2021-12-10,19:40:00,DRY,4.37,7.03,18.3,776.00,1.1
2021-12-10,19:45:00,DRY,5.10,7.00,19.5,776.00,1.4
2021-12-10,19:50:00,DRY,4.40,7.00,17.7,776.00,1.1
2021-12-10,19:55:00,DRY,3.55,7.05,18.0,776.00,1.9
2021-12-10,20:00:00,DRY,2.20,6.90,17.7,776.00,1.9
2021-12-10,20:05:00,DRY,3.55,6.95,18.5,776.00,1.5
2021-12-10,20:10:00,DRY,4.50,6.77,18.3,776.00,1.3
2021-12-10,20:15:00,DRY,4.05,6.70,19.0,776.00,1.5
2021-12-10,20:20:00,DRY,5.07,6.33,21.3,776.00,1.1
2021-12-10,20:25:00,DRY,2.90,6.30,22.0,776.00,1.4
2021-12-10,20:30:00,DRY,2.73,6.03,24.0,776.00,1.1
2021-12-10,20:35:00,DRY,4.45,6.10,21.5,776.00,1.6
2021-12-10,20:40:00,DRY,4.43,6.33,20.7,776.00,1.1
2021-12-10,20:45:00,DRY,1.40,6.45,21.0,776.00,0.7
2021-12-10,20:50:00,DRY,5.17,6.57,21.0,776.00,1.7
2021-12-10,20:55:00,DRY,3.50,6.65,21.5,776.00,1.7
2021-12-10,21:00:00,DRY,3.70,6.67,21.7,776.00,1.5
2021-12-10,21:05:00,DRY,4.45,6.45,23.0,776.00,1.4
2021-12-10,21:10:00,DRY,6.40,6.47,22.3,776.00,0.7
2021-12-10,21:15:00,DRY,1.75,6.70,21.5,776.00,1.7
2021-12-10,21:20:00,DRY,4.03,6.90,19.0,776.00,1.1
2021-12-10,21:25:00,DRY,4.55,6.95,18.5,776.00,1.7
2021-12-10,21:30:00,DRY,3.37,7.17,17.7,776.00,1.3
2021-12-10,21:35:00,DRY,3.50,7.05,17.5,776.00,2.5
2021-12-10,21:40:00,DRY,3.37,7.07,17.0,776.00,1.3
2021-12-10,21:45:00,DRY,3.25,7.40,15.5,776.00,1.4
2021-12-10,21:50:00,DRY,2.10,7.07,18.0,776.00,0.8
2021-12-10,21:55:00,DRY,3.20,7.05,16.5,776.00,1.6
2021-12-10,22:00:00,DRY,2.70,7.13,16.7,776.00,1.7
2021-12-10,22:05:00,DRY,2.00,7.10,16.5,776.00,0.8
2021-12-10,22:10:00,DRY,1.33,6.97,17.7,776.00,1.7
2021-12-10,22:15:00,DRY,1.95,6.60,18.0,776.00,1.8
2021-12-10,22:20:00,DRY,2.60,6.77,17.7,776.00,0.5
2021-12-10,22:25:00,DRY,3.95,6.95,17.5,776.00,1.2
2021-12-10,22:30:00,DRY,1.50,6.77,18.3,776.33,0.9
2021-12-10,22:35:00,DRY,3.10,6.65,18.5,776.00,2.0
2021-12-10,22:40:00,DRY,3.30,6.80,19.0,776.00,1.2
2021-12-10,22:45:00,DRY,2.05,6.75,18.5,776.00,1.8
2021-12-10,22:50:00,DRY,2.27,6.87,17.7,776.00,0.6
2021-12-10,22:55:00,DRY,1.40,6.80,17.5,776.00,0.8
2021-12-10,23:00:00,DRY,1.57,6.77,18.3,776.00,0.7
2021-12-10,23:05:00,DRY,2.60,6.60,19.0,776.00,1.7
2021-12-10,23:10:00,DRY,2.30,6.43,18.3,776.00,1.4
2021-12-10,23:15:00,DRY,3.50,6.60,18.0,776.00,2.2
2021-12-10,23:20:00,DRY,2.20,6.70,17.7,776.00,1.4
2021-12-10,23:25:00,DRY,2.65,6.55,17.5,776.00,1.1
2021-12-10,23:30:00,DRY,2.27,6.50,17.3,776.00,1.2
2021-12-10,23:35:00,DRY,3.80,6.70,17.0,776.00,1.8
2021-12-10,23:40:00,DRY,4.63,6.67,18.0,776.00,1.6
2021-12-10,23:45:00,DRY,3.85,6.40,18.0,776.00,1.1
2021-12-10,23:50:00,DRY,4.10,6.53,19.3,776.00,1.4
2021-12-10,23:55:00,DRY,5.15,6.40,18.5,776.00,0.8
2021-12-11,00:00:00,DRY,3.67,6.53,17.7,776.00,0.9
2021-12-11,00:05:00,DRY,2.70,6.25,20.5,776.00,1.1
2021-12-11,00:10:00,DRY,4.07,6.10,19.3,776.00,1.4
2021-12-11,00:15:00,DRY,3.55,6.35,18.5,776.00,1.8
2021-12-11,00:20:00,DRY,3.53,6.43,18.7,776.00,0.9
2021-12-11,00:25:00,DRY,2.60,5.85,20.5,776.00,1.1
2021-12-11,00:30:00,DRY,4.10,6.13,19.7,776.00,0.9
2021-12-11,00:35:00,DRY,4.25,5.90,20.5,776.00,1.5
2021-12-11,00:40:00,DRY,3.27,5.93,20.7,776.00,1.3
2021-12-11,00:45:00,DRY,3.50,5.85,20.0,776.00,1.4
2021-12-11,00:50:00,DRY,4.70,6.00,19.0,776.00,1.1
2021-12-11,00:55:00,DRY,4.05,6.20,18.5,776.00,1.1
2021-12-11,01:00:00,DRY,4.33,6.03,18.3,776.00,1.1
2021-12-11,01:05:00,DRY,3.10,6.35,17.0,776.00,1.5
2021-12-11,01:10:00,DRY,4.37,6.27,16.7,776.00,1.2
2021-12-11,01:15:00,DRY,3.10,6.35,16.5,776.00,1.9
2021-12-11,01:20:00,DRY,4.77,6.53,15.3,776.00,0.9
2021-12-11,01:25:00,DRY,3.95,6.60,15.0,775.50,1.0
2021-12-11,01:30:00,DRY,3.83,6.60,14.7,776.00,1.2
2021-12-11,01:35:00,DRY,7.70,6.85,14.0,775.00,1.1
2021-12-11,01:40:00,DRY,4.23,6.60,15.0,775.00,1.0
2021-12-11,01:45:00,DRY,4.80,6.60,15.0,775.50,1.4
2021-12-11,01:50:00,DRY,4.33,6.53,15.0,775.00,1.0
2021-12-11,01:55:00,DRY,5.25,6.55,15.0,775.00,1.4
2021-12-11,02:00:00,DRY,3.17,6.63,14.7,776.00,1.3
2021-12-11,02:05:00,DRY,3.95,6.65,14.5,775.50,2.5
2021-12-11,02:10:00,DRY,4.47,6.80,14.0,775.00,0.7
2021-12-11,02:15:00,DRY,3.60,6.85,14.0,775.50,0.7
2021-12-11,02:20:00,DRY,6.50,7.07,13.7,775.00,1.0
2021-12-11,02:25:00,DRY,5.60,6.95,14.0,775.00,1.1
2021-12-11,02:30:00,DRY,4.73,7.03,14.0,775.00,1.2
2021-12-11,02:35:00,DRY,2.80,7.05,14.0,775.00,1.0
2021-12-11,02:40:00,DRY,2.70,7.20,12.0,775.00,0.8
2021-12-11,02:45:00,DRY,3.85,7.35,12.0,775.00,1.3
2021-12-11,02:50:00,DRY,3.97,7.10,13.0,775.00,1.2
2021-12-11,02:55:00,DRY,1.90,7.15,13.0,775.00,1.2
2021-12-11,03:00:00,DRY,2.30,7.13,13.0,775.00,0.9
2021-12-11,03:05:00,DRY,1.25,6.90,13.5,775.00,0.9
2021-12-11,03:10:00,DRY,2.70,6.87,13.7,775.00,1.1
2021-12-11,03:15:00,DRY,1.70,7.20,12.0,775.00,2.0
2021-12-11,03:20:00,DRY,2.90,7.37,12.7,775.00,1.2
2021-12-11,03:25:00,DRY,2.15,7.20,13.0,775.00,1.4
2021-12-11,03:30:00,DRY,2.40,7.20,13.0,775.00,0.7
2021-12-11,03:35:00,DRY,2.45,7.00,13.0,775.00,1.6
2021-12-11,03:40:00,DRY,1.97,7.27,12.3,775.00,1.4
2021-12-11,03:45:00,DRY,1.80,7.25,13.0,775.00,2.1
2021-12-11,03:50:00,DRY,1.83,7.03,13.0,775.00,1.1
2021-12-11,03:55:00,DRY,2.35,7.20,12.5,775.00,1.2
2021-12-11,04:00:00,DRY,1.57,7.23,13.0,775.00,1.9
2021-12-11,04:05:00,DRY,1.60,7.40,12.0,775.00,2.1
2021-12-11,04:10:00,DRY,2.03,7.27,13.0,775.00,1.6
2021-12-11,04:15:00,DRY,2.00,6.75,13.0,775.00,1.4
2021-12-11,04:20:00,DRY,1.50,6.87,13.0,775.00,1.7
2021-12-11,04:25:00,DRY,2.25,7.00,13.0,775.00,0.2
2021-12-11,04:30:00,DRY,2.23,6.93,13.0,775.00,0.9
2021-12-11,04:35:00,DRY,2.15,6.30,14.0,775.00,1.0
2021-12-11,04:40:00,DRY,2.00,6.43,13.3,775.00,1.0
2021-12-11,04:45:00,DRY,2.50,6.40,14.0,775.00,0.9
2021-12-11,04:50:00,DRY,2.57,7.10,12.7,775.00,1.1
2021-12-11,04:55:00,DRY,2.25,7.30,12.0,775.00,1.6
2021-12-11,05:00:00,DRY,2.10,7.37,12.3,775.00,2.0
2021-12-11,05:05:00,DRY,2.50,7.90,11.5,775.00,1.1
2021-12-11,05:10:00,DRY,2.87,7.83,12.0,775.00,1.3
2021-12-11,05:15:00,DRY,1.60,7.90,12.0,775.00,0.4
2021-12-11,05:20:00,DRY,1.67,7.70,11.7,775.00,1.1
2021-12-11,05:25:00,DRY,1.40,7.30,12.0,775.00,0.9
2021-12-11,05:30:00,DRY,1.33,7.13,12.0,775.00,2.2
2021-12-11,05:35:00,DRY,1.75,7.25,12.0,775.00,1.5
2021-12-11,05:40:00,DRY,0.80,7.47,11.0,775.00,1.1
2021-12-11,05:45:00,DRY,0.30,7.65,11.0,775.00,1.4
2021-12-11,05:50:00,DRY,1.33,7.43,11.0,775.00,1.2
2021-12-11,05:55:00,DRY,1.45,7.75,11.0,775.00,1.1
2021-12-11,06:00:00,DRY,1.60,7.70,11.0,775.00,1.0
2021-12-11,06:05:00,DRY,1.15,7.40,12.0,775.00,0.9
2021-12-11,06:10:00,DRY,1.23,7.50,11.3,775.00,0.6
2021-12-11,06:15:00,DRY,1.00,7.75,11.0,775.00,0.8
2021-12-11,06:20:00,DRY,2.93,7.47,11.0,775.00,0.9
2021-12-11,06:25:00,DRY,3.00,7.45,11.0,775.00,1.4
2021-12-11,06:30:00,DRY,3.63,7.17,12.0,775.00,0.9
2021-12-11,06:35:00,DRY,2.75,7.20,12.0,775.00,0.9
2021-12-11,06:40:00,DRY,3.77,7.97,11.7,775.00,1.2
2021-12-11,06:45:00,DRY,2.90,7.75,11.5,775.00,1.1
2021-12-11,06:50:00,DRY,2.23,7.33,12.3,775.00,0.9
2021-12-11,06:55:00,DRY,1.45,6.90,13.5,775.00,1.5
2021-12-11,07:00:00,DRY,1.73,6.93,13.3,775.00,2.1
2021-12-11,07:05:00,DRY,2.25,7.40,12.5,775.00,2.1
2021-12-11,07:10:00,DRY,2.27,7.83,12.0,775.00,0.6
2021-12-11,07:15:00,DRY,1.95,8.20,12.0,775.00,0.7
2021-12-11,07:20:00,DRY,2.20,8.13,12.0,775.00,1.9
2021-12-11,07:25:00,DRY,2.35,8.35,12.0,775.00,0.6
2021-12-11,07:30:00,DRY,2.20,8.40,12.0,775.00,0.8
2021-12-11,07:35:00,DRY,2.65,8.00,12.5,775.00,1.2
2021-12-11,07:40:00,DRY,2.53,8.00,12.3,775.00,2.2
2021-12-11,07:45:00,DRY,1.65,8.10,11.5,775.00,3.4
2021-12-11,07:50:00,DRY,0.87,7.70,11.7,775.00,4.9
2021-12-11,07:55:00,DRY,0.25,7.25,12.0,775.00,7.8
2021-12-11,08:00:00,DRY,0.67,7.07,12.3,775.00,10.1
2021-12-11,08:05:00,DRY,1.10,7.30,12.5,775.00,13.1
2021-12-11,08:10:00,DRY,0.67,7.43,12.0,775.00,14.6
2021-12-11,08:15:00,DRY,0.60,7.65,11.0,775.00,16.4
2021-12-11,08:20:00,DRY,1.40,7.20,12.0,775.00,18.9
2021-12-11,08:25:00,DRY,0.50,7.05,12.5,775.00,20.4
2021-12-11,08:30:00,DRY,1.20,7.57,11.7,775.00,23.0
2021-12-11,08:35:00,DRY,1.40,7.95,11.5,775.00,51.7
2021-12-11,08:40:00,DRY,1.97,7.87,11.3,775.00,172.3
2021-12-11,08:45:00,DRY,2.05,8.15,11.0,775.00,192.3
2021-12-11,08:50:00,DRY,1.20,8.80,10.3,775.00,211.3
2021-12-11,08:55:00,DRY,2.05,9.00,10.5,775.00,232.3
2021-12-11,09:00:00,DRY,1.30,8.93,11.0,775.00,251.7
2021-12-11,09:05:00,DRY,1.80,8.65,10.5,775.50,271.5
2021-12-11,09:10:00,DRY,1.83,9.00,10.0,775.33,290.7
2021-12-11,09:15:00,DRY,1.55,9.30,10.0,775.00,309.8
2021-12-11,09:20:00,DRY,0.47,9.63,10.0,775.00,330.1
2021-12-11,09:25:00,DRY,0.45,10.00,9.5,775.00,348.9
2021-12-11,09:30:00,DRY,0.93,9.93,10.0,775.00,367.7
2021-12-11,09:35:00,DRY,0.60,10.20,9.5,775.00,387.0
2021-12-11,09:40:00,DRY,0.63,10.43,10.0,775.00,405.1
2021-12-11,09:45:00,DRY,0.85,10.05,10.5,775.00,422.4
2021-12-11,09:50:00,DRY,1.03,9.57,10.7,775.00,440.9
2021-12-11,09:55:00,DRY,0.60,9.45,11.0,775.00,458.8
2021-12-11,10:00:00,DRY,0.60,10.00,10.3,775.00,475.3
2021-12-11,10:05:00,DRY,0.80,10.25,11.5,775.00,491.1
2021-12-11,10:10:00,DRY,1.10,10.03,12.3,775.00,507.5
2021-12-11,10:15:00,DRY,0.70,9.75,11.5,775.00,523.4
2021-12-11,10:20:00,DRY,0.27,9.87,12.7,775.00,538.9
2021-12-11,10:25:00,DRY,0.90,9.95,12.5,775.00,552.7
2021-12-11,10:30:00,DRY,0.87,10.07,11.3,775.00,569.0
2021-12-11,10:35:00,DRY,0.55,9.90,12.0,775.00,583.2
2021-12-11,10:40:00,DRY,1.10,9.30,12.0,775.00,598.0
2021-12-11,10:45:00,DRY,1.90,8.95,12.5,775.00,608.3
2021-12-11,10:50:00,DRY,1.20,8.83,12.0,775.00,623.3
2021-12-11,10:55:00,DRY,1.35,9.50,11.5,775.00,636.0
2021-12-11,11:00:00,DRY,2.40,9.03,12.0,775.00,647.3
2021-12-11,11:05:00,DRY,1.90,9.10,12.5,775.00,657.8
2021-12-11,11:10:00,DRY,2.83,9.03,13.3,775.00,670.1
2021-12-11,11:15:00,DRY,2.75,9.30,14.5,775.00,679.1
2021-12-11,11:20:00,DRY,2.97,8.80,15.3,775.33,689.1
2021-12-11,11:25:00,DRY,2.00,8.65,14.5,775.00,699.2
2021-12-11,11:30:00,DRY,2.73,8.93,15.7,775.00,708.7
2021-12-11,11:35:00,DRY,2.50,8.70,16.0,775.00,718.6
2021-12-11,11:40:00,DRY,2.03,8.70,16.3,775.00,725.7
2021-12-11,11:45:00,DRY,3.00,8.60,15.0,775.00,734.8
2021-12-11,11:50:00,DRY,2.70,8.47,15.0,775.00,741.1
2021-12-11,11:55:00,DRY,1.90,8.55,16.0,775.00,748.2
2021-12-11,12:00:00,DRY,1.73,8.80,19.0,775.00,754.3
2021-12-11,12:05:00,DRY,2.30,8.85,18.5,775.00,760.5
2021-12-11,12:10:00,DRY,1.87,9.30,14.3,775.00,767.2
2021-12-11,12:15:00,DRY,2.40,9.00,13.5,775.00,773.0
2021-12-11,12:20:00,DRY,2.23,8.93,14.7,775.00,777.8
2021-12-11,12:25:00,DRY,1.95,9.00,11.0,775.00,780.0
2021-12-11,12:30:00,DRY,2.10,9.20,13.7,775.00,782.4
2021-12-11,12:35:00,DRY,2.90,9.20,12.0,775.00,784.6
2021-12-11,12:40:00,DRY,1.83,9.03,10.3,775.00,788.7
2021-12-11,12:45:00,DRY,1.60,9.20,10.5,775.00,788.7
2021-12-11,12:50:00,DRY,2.00,9.27,11.7,775.00,794.8
2021-12-11,12:55:00,DRY,2.30,9.25,12.5,775.00,794.2
2021-12-11,13:00:00,DRY,2.30,9.23,12.0,775.00,793.3
2021-12-11,13:05:00,DRY,2.05,9.40,15.0,774.50,792.2
2021-12-11,13:10:00,DRY,2.47,9.23,14.7,774.33,789.9
2021-12-11,13:15:00,DRY,2.70,9.10,14.5,774.50,791.0
2021-12-11,13:20:00,DRY,2.27,9.13,12.7,774.00,791.6
2021-12-11,13:25:00,DRY,1.30,9.15,13.5,774.00,788.0
2021-12-11,13:30:00,DRY,1.75,9.20,14.0,774.00,788.1
2021-12-11,13:35:00,DRY,1.40,9.30,14.0,774.00,786.2
2021-12-11,13:40:00,DRY,2.63,9.27,13.0,774.00,780.4
2021-12-11,13:45:00,DRY,2.45,9.15,14.5,774.00,776.2
2021-12-11,13:50:00,DRY,2.80,9.23,14.7,774.00,772.5
2021-12-11,13:55:00,DRY,2.05,9.10,16.5,774.00,768.5
2021-12-11,14:00:00,DRY,2.10,9.07,17.7,774.00,759.4
2021-12-11,14:05:00,DRY,2.20,8.90,13.5,774.00,756.2
2021-12-11,14:10:00,DRY,2.60,8.97,13.3,774.00,748.3
2021-12-11,14:15:00,DRY,1.55,9.15,20.0,774.00,740.8
2021-12-11,14:20:00,DRY,1.60,8.83,38.7,774.00,734.1
2021-12-11,14:25:00,DRY,2.50,8.70,39.5,774.00,724.9
2021-12-11,14:30:00,DRY,1.10,8.40,42.0,774.00,718.5
2021-12-11,14:35:00,DRY,2.05,8.55,43.5,774.00,709.9
2021-12-11,14:40:00,DRY,2.07,8.07,50.0,774.00,698.2
2021-12-11,14:45:00,DRY,1.35,8.30,30.5,774.00,689.6
2021-12-11,14:50:00,DRY,1.73,8.17,47.3,774.00,678.0
2021-12-11,14:55:00,DRY,1.85,8.25,46.0,774.00,666.4
2021-12-11,15:00:00,DRY,1.77,8.17,28.0,774.00,656.2
2021-12-11,15:05:00,DRY,2.75,8.30,21.5,774.00,643.1
2021-12-11,15:10:00,DRY,1.97,8.33,20.0,774.00,629.4
2021-12-11,15:15:00,DRY,2.70,8.20,15.5,774.00,619.1
2021-12-11,15:20:00,DRY,2.67,8.10,23.7,774.00,604.0
2021-12-11,15:25:00,DRY,3.10,8.15,19.0,774.00,592.2
2021-12-11,15:30:00,DRY,1.77,8.20,21.7,774.00,577.2
2021-12-11,15:35:00,DRY,2.15,8.05,25.0,774.00,563.7
2021-12-11,15:40:00,DRY,2.17,7.97,17.3,774.00,549.3
2021-12-11,15:45:00,DRY,2.30,7.75,16.5,774.00,534.9
2021-12-11,15:50:00,DRY,3.43,7.73,15.0,774.00,519.7
2021-12-11,15:55:00,DRY,2.60,7.60,16.5,774.00,504.1
2021-12-11,16:00:00,DRY,2.90,7.47,17.0,774.00,487.7
2021-12-11,16:05:00,DRY,1.60,7.35,21.0,774.00,469.0
2021-12-11,16:10:00,DRY,2.20,7.43,18.3,774.00,452.2
2021-12-11,16:15:00,DRY,3.15,7.40,16.5,774.00,435.7
2021-12-11,16:20:00,DRY,2.87,7.50,15.7,774.00,417.2
2021-12-11,16:25:00,DRY,2.90,7.25,15.5,774.00,400.1
2021-12-11,16:30:00,DRY,2.97,7.30,15.3,774.00,380.5
2021-12-11,16:35:00,DRY,3.75,7.15,16.0,774.00,362.6
2021-12-11,16:40:00,DRY,3.37,6.97,15.3,774.00,343.1
2021-12-11,16:45:00,DRY,3.45,6.90,16.0,774.00,324.6
2021-12-11,16:50:00,DRY,4.23,7.03,15.3,774.00,304.6
2021-12-11,16:55:00,DRY,2.10,7.00,16.0,774.00,285.9
2021-12-11,17:00:00,DRY,2.07,7.13,15.0,774.00,265.8
2021-12-11,17:05:00,DRY,3.30,7.40,15.0,774.00,247.6
2021-12-11,17:10:00,DRY,2.60,7.03,16.3,774.00,228.5
2021-12-11,17:15:00,DRY,3.55,6.90,16.0,774.00,209.2
2021-12-11,17:20:00,DRY,3.70,7.00,15.7,774.00,190.1
2021-12-11,17:25:00,DRY,3.25,7.05,16.0,774.00,172.2
2021-12-11,17:30:00,DRY,3.70,6.80,17.0,774.00,153.5